Location: Cerda�ola
(41.4919°N, 2.1403°E)
Time: 05:50:07
(UTC+00:00)

Lacrosse 4 Rocket - Pass Details

Date: 20 August 2020
Orbit: 544 x 615 km, 68.0° (Epoch: 21 September)

Event Time Altitude Azimuth Distance (km) Brightness Sun altitude
Rises 04:32:59 0° 346° (NNW) 2,721 5.0 -6.6°
Reaches altitude 10° 04:35:50 10° 6° (N) 1,819 4.4 -6.1°
Maximum altitude 04:38:34 17° 49° (NE) 1,412 4.7 -5.6°
Drops below altitude 10° 04:41:17 10° 91° (E) 1,811 5.3 -5.1°
Sets 04:44:06 0° 112° (ESE) 2,703 5.7 -4.7°
